Location: Balls_Creek
(35.6670°N, 81.1170°W)
Time: 23:08:59
(UTC-05:00)

Daily predictions for brighter satellites

Satellite Brightness Start Highest point End
(mag) Time Altitude Azimuth Time Altitude Azimuth Time Altitude Azimuth
CZ-4C R/B 4.1 17:34:12 10° N 17:39:20 20° NE 17:44:48 10° E
Meteor 1-28 Rocket 3.5 17:36:37 10° NNE 17:40:11 43° E 17:43:43 10° S
Meteor 1-26 Rocket 4.4 17:35:03 10° SSW 17:40:37 79° W 17:46:10 10° N
Cosmos 1503 Rocket 4.3 17:35:59 10° S 17:41:01 47° ESE 17:46:02 10° NNE
Ariane Rocket 3.0 17:37:03 10° SSE 17:42:03 62° ENE 17:47:04 10° N
Tiangong 1 2.3 17:41:01 10° SSW 17:43:07 22° SE 17:45:13 10° E
Cosmos 1606 3.1 17:41:01 10° SSE 17:44:36 42° E 17:48:10 10° NNE
Cosmos 841 Rocket 3.5 17:42:48 10° NNW 17:48:04 68° ENE 17:53:16 10° SSE
Landsat 4 4.1 17:49:31 10° NNE 17:53:09 44° E 17:56:47 10° S
CSL-04 Rocket 3.7 17:49:31 10° SSE 17:54:48 87° WSW 18:00:11 10° NNW
Cosmos 1703 Rocket 3.5 17:51:07 10° S 17:55:33 72° E 18:00:01 10° N
Cosmos 1484 Rocket 2.7 17:53:00 10° SSE 17:56:51 85° ENE 18:00:48 10° N
Cosmos 2221 Rocket 3.8 17:55:22 10° SSE 17:59:35 47° E 18:03:49 10° NNE
EO 1 Del DPAF 3.9 17:58:25 10° NNE 18:01:55 33° E 18:05:22 10° SSE
Cosmos 2082 Rocket 2.4 18:00:34 10° N 18:06:03 48° ENE 18:11:28 10° SE
ERS-2 2.7 18:02:54 10° SE 18:06:14 34° ENE 18:09:36 10° N
OAO 3 Rocket 3.7 18:02:17 10° WSW 18:07:02 52° SSE 18:10:55 15° E
BREEZE M DEB (TANK) 4.4 18:05:12 10° W 18:07:04 17° SW 18:08:41 10° S
CZ-4 R/B 1.2 18:04:30 10° SSE 18:08:21 80° ENE 18:12:12 10° N
Meteor 2-6 Rocket 4.1 18:06:24 10° S 18:11:45 64° E 18:17:16 10° NNE
Meteor 1-20 Rocket 4.3 18:12:12 10° NNW 18:17:44 77° W 18:23:09 10° S
Cosmos 1602 4.3 18:14:16 10° NNE 18:17:48 33° E 18:21:18 10° SE
USA 229 DEB 4.3 18:12:45 10° S 18:18:37 33° ESE 18:22:43 18° ENE
Okean 2 Rocket 3.4 18:14:16 10° N 18:18:37 45° E 18:22:56 10° SSE
USA 229 4.4 18:12:52 10° S 18:18:44 33° ESE 18:22:46 18° ENE
Cosmos 1354 Rocket 4.3 18:15:37 10° SSW 18:20:52 71° WNW 18:26:09 10° NNE
CZ-4 R/B 4.3 18:16:50 10° SSE 18:20:58 70° ENE 18:25:07 10° N
Cosmos 1633 2.6 18:17:30 10° N 18:21:11 85° W 18:24:50 10° S
Cosmos 405 Rocket 2.6 18:17:33 10° S 18:21:18 60° E 18:24:59 10° NNE
Cosmos 1908 Rocket 4.5 18:19:30 10° NNW 18:23:42 50° W 18:27:52 10° SSW
SKYMED 2 3.5 18:22:25 10° NNE 18:26:47 78° ESE 18:31:06 10° S
Cosmos 1782 3.7 18:23:04 10° SSW 18:26:59 51° W 18:30:54 10° N
Cosmos 1464 Rocket 3.9 18:22:14 10° S 18:28:21 87° E 18:34:32 10° N
BREEZE-M R/B 2.6 18:28:22 10° NW 18:31:18 74° NE 18:35:53 13° SE
SPOT 3 Rocket 3.6 18:26:21 10° SSE 18:31:25 54° ENE 18:36:29 10° N
BREEZE-M DEB (TANK) 4.2 18:31:18 10° NNW 18:32:12 16° N 18:32:12 16° N
FENGYUN 3A 3.7 18:31:34 10° SSE 18:36:48 52° ENE 18:42:02 10° N
Cosmos 44 Rocket 3.4 18:32:47 10° NNW 18:37:36 55° ENE 18:42:09 12° SE
Okean 1-7 4.0 18:35:31 10° SSW 18:39:44 48° W 18:44:01 10° N
GPS 2-05 Rocket1 2.5 18:38:05 10° W 18:41:14 81° S 18:41:40 62° E
Cosmos 292 Rocket 3.6 18:37:01 10° NNW 18:41:45 67° ENE 18:46:29 10° SSE
ISS -2.2 18:40:43 10° S 18:42:42 22° SSE 18:42:42 22° SSE
Meteor 1-27 Rocket 3.7 18:41:21 10° S 18:47:14 84° E 18:53:12 10° N
Cosmos 44 3.2 18:52:17 10° NNW 18:57:04 87° WSW 19:02:06 10° SSE
Cosmos 1833 Rocket 3.2 18:51:58 10° NNW 18:57:30 59° WSW 19:02:59 10° S
Cosmos 2369 Rocket 2.7 18:52:45 10° S 18:57:34 37° ESE 18:57:34 37° ESE
Cosmos 1777 Rocket 4.4 18:57:22 10° S 19:01:49 42° ESE 19:01:49 42° ESE
NOAA 12 4.1 18:57:46 10° SSE 19:03:06 85° WSW 19:08:26 10° NNW
Thor Agena Rocket 3.5 19:04:54 54° ENE 19:05:29 57° ESE 19:10:32 10° S
ALOS 2.5 19:03:34 10° S 19:08:12 70° WSW 19:12:53 10° NNW
Cosmos 405 4.1 19:06:14 10° NNW 19:09:41 45° W 19:13:06 10° SSW
COSMO-SKYMED 1 4.5 19:10:59 10° NNW 19:14:42 28° WNW 19:18:24 10° SW
Cosmos 968 Rocket 4.2 19:12:18 10° SW 19:17:18 52° WNW 19:20:41 21° N
USA 234 3.4 19:14:27 33° NNE 19:17:36 69° NW 19:24:04 10° SW
Tiangong 1 3.9 19:15:19 10° W 19:15:53 15° W 19:15:53 15° W
Cosmos 1943 Rocket 3.8 19:17:16 10° S 19:19:04 20° SSE 19:19:04 20° SSE
Cosmos 2084 Rocket 4.5 19:20:46 10° SSW 19:23:38 39° SSW 19:23:38 39° SSW
CZ-4C R/B 2.8 19:21:26 10° NNW 19:28:52 83° ENE 19:32:49 34° SE
Cosmos 1634 Rocket 3.9 19:35:28 10° S 19:41:36 85° W 19:42:05 77° NNW
NOSS 3-1 (C) 4.2 19:40:41 10° SSW 19:43:57 37° S 19:43:57 37° S
OAO 3 Rocket 4.4 19:45:32 10° W 19:48:44 41° W 19:48:44 41° W
USA 229 4.5 20:03:03 10° WSW 20:09:26 44° NW 20:10:16 42° NNW
Cosmos 2369 Rocket 4.4 20:37:11 10° WSW 20:39:26 20° W 20:39:26 20° W
